Location: Igon
(43.1667°N, 0.2333°W)
Time: 02:59:52
(UTC+00:00)

SKYMED 3 - Pass Details

Date: 18 April 2021
Orbit: 621 x 624 km, 97.9° (Epoch: 18 May)

Event Time Altitude Azimuth Distance (km) Brightness Sun altitude
Rises 04:10:50 0° 131° (SE) 2,896 8.3 -11.5°
Reaches altitude 10° 04:13:24 10° 116° (ESE) 1,994 7.7 -11.1°
Maximum altitude 04:16:43 22° 66° (ENE) 1,383 7.5 -10.6°
Drops below altitude 10° 04:20:02 10° 16° (NNE) 2,004 7.8 -10.0°
Sets 04:22:37 0° 1° (N) 2,915 8.4 -9.6°
